DC7DOC Weather Reports


time (UTC)temp
F
wind
direction
speed
knots
gust
knots
rain 1hr
in
rain 24hr
in
rain mn
in
humidity
%
barometer
mb
20260507153203 51 112 2.6 3.5 0.00 0.00 0.00 75 1020.9
20260507153016 51 112 2.6 3.5 0.00 0.00 0.00 75 1020.9
20260507152617 51 115 2.6 4.3 0.00 0.00 0.00 75 1020.9
20260507152603 51 114 2.6 4.3 0.00 0.00 0.00 75 1020.9
20260507152203 50 107 2.6 3.5 0.00 0.00 0.00 75 1020.6
20260507152003 50 109 2.6 4.3 0.00 0.00 0.00 75 1020.8
20260507151817 51 109 2.6 4.3 0.00 0.00 0.00 74 1020.7
20260507151803 51 108 2.6 4.3 0.00 0.00 0.00 74 1020.7
20260507151403 50 111 2.6 2.6 0.00 0.00 0.00 75 1020.7
20260507151203 51 112 2.6 3.5 0.00 0.00 0.00 74 1020.7
20260507151003 51 104 2.6 4.3 0.00 0.00 0.00 74 1020.9
20260507150803 51 96 2.6 4.3 0.00 0.00 0.00 74 1020.7
20260507150603 51 85 2.6 3.5 0.00 0.00 0.00 74 1020.7
20260507150403 51 81 2.6 2.6 0.00 0.00 0.00 74 1020.7
20260507150203 51 82 2.6 3.5 0.00 0.00 0.00 77 1020.8
20260507150003 51 85 2.6 3.5 0.00 0.00 0.00 76 1020.7
20260507145803 51 88 2.6 3.5 0.00 0.00 0.00 73 1020.6
20260507145403 51 83 2.6 3.5 0.00 0.00 0.00 73 1020.4
20260507145203 51 80 2.6 2.6 0.00 0.00 0.00 74 1020.3
20260507145018 51 80 2.6 3.5 0.00 0.00 0.00 75 1020.5
20260507145003 51 79 2.6 3.5 0.00 0.00 0.00 75 1020.5
20260507144603 51 90 2.6 3.5 0.00 0.00 0.00 77 1020.5
20260507144403 51 97 2.6 3.5 0.00 0.00 0.00 75 1020.5
20260507144203 51 101 2.6 3.5 0.00 0.00 0.00 73 1020.4
20260507144003 51 103 2.6 4.3 0.00 0.00 0.00 72 1020.6
20260507143803 51 100 2.6 3.5 0.00 0.00 0.00 73 1020.5
20260507143603 51 99 2.6 3.5 0.00 0.00 0.00 73 1020.6
20260507143403 51 97 2.6 4.3 0.00 0.00 0.00 72 1020.4
20260507143203 51 95 2.6 3.5 0.00 0.00 0.00 72 1020.5
20260507143003 51 95 2.6 3.5 0.00 0.00 0.00 73 1020.7
20260507142803 52 93 2.6 3.5 0.00 0.00 0.00 73 1020.6
20260507142603 52 90 2.6 3.5 0.00 0.00 0.00 72 1020.6
20260507142403 51 85 2.6 3.5 0.00 0.00 0.00 72 1020.5
20260507142203 52 82 2.6 3.5 0.00 0.00 0.00 72 1020.3
20260507142003 52 84 2.6 3.5 0.00 0.00 0.00 73 1020.3
20260507141803 52 86 2.6 3.5 0.00 0.00 0.00 74 1020.6
20260507141603 52 90 2.6 3.5 0.00 0.00 0.00 73 1020.4
20260507141403 51 94 2.6 3.5 0.00 0.00 0.00 73 1020.5
20260507141203 51 96 2.6 4.3 0.00 0.00 0.00 72 1020.5
20260507141003 51 94 2.6 3.5 0.00 0.00 0.00 72 1020.3
20260507140803 51 93 2.6 3.5 0.00 0.00 0.00 73 1020.4
20260507140603 51 90 2.6 3.5 0.00 0.00 0.00 72 1020.5
20260507140403 51 90 2.6 3.5 0.00 0.00 0.00 72 1020.5
20260507140203 51 89 2.6 4.3 0.00 0.00 0.00 73 1020.2
20260507135803 51 86 2.6 2.6 0.00 0.00 0.00 74 1020.3
20260507135603 51 89 2.6 4.3 0.00 0.00 0.00 73 1020.2
20260507135403 51 88 2.6 3.5 0.00 0.00 0.00 74 1020.3
20260507135203 51 93 2.6 2.6 0.00 0.00 0.00 73 1020.4
20260507135003 51 90 2.6 2.6 0.00 0.00 0.00 74 1020.4
20260507134803 51 91 2.6 3.5 0.00 0.00 0.00 73 1020.3
20260507134603 51 89 2.6 2.6 0.00 0.00 0.00 74 1020.1
20260507134403 51 87 2.6 4.3 0.00 0.00 0.00 72 1020.3
20260507134203 51 85 2.6 2.6 0.00 0.00 0.00 75 1020.1
20260507134003 51 90 2.6 2.6 0.00 0.00 0.00 73 1020.4
20260507133803 51 90 2.6 3.5 0.00 0.00 0.00 73 1020.4
20260507133618 51 92 2.6 4.3 0.00 0.00 0.00 73 1020.4
20260507133603 51 93 2.6 4.3 0.00 0.00 0.00 73 1020.4
20260507133203 51 95 2.6 3.5 0.00 0.00 0.00 73 1020.3
20260507133003 51 91 2.6 5.2 0.00 0.00 0.00 72 1020.2
20260507132803 51 89 2.6 3.5 0.00 0.00 0.00 73 1020.3
20260507132604 51 87 2.6 5.2 0.00 0.00 0.00 74 1020.3
20260507132403 51 79 2.6 3.5 0.00 0.00 0.00 75 1020.0
20260507132203 51 81 2.6 3.5 0.00 0.00 0.00 76 1020.2
20260507132003 50 82 2.6 3.5 0.00 0.00 0.00 75 1020.1
20260507131803 51 85 2.6 3.5 0.00 0.00 0.00 73 1020.2
20260507131603 51 89 2.6 6.1 0.00 0.00 0.00 75 1020.2
20260507131403 51 96 2.6 4.3 0.00 0.00 0.00 75 1020.0
20260507131203 50 99 2.6 3.5 0.00 0.00 0.00 74 1020.2
20260507131003 50 101 2.6 4.3 0.00 0.00 0.00 74 1020.1
20260507130803 50 97 2.6 5.2 0.00 0.00 0.00 73 1020.2
20260507130603 50 92 2.6 2.6 0.00 0.00 0.00 74 1020.3
20260507130403 50 90 2.6 5.2 0.00 0.00 0.00 74 1020.0
20260507130203 50 90 2.6 3.5 0.00 0.00 0.00 75 1020.0
20260507130003 50 87 2.6 3.5 0.00 0.00 0.00 75 1020.1
20260507125803 50 88 2.6 5.2 0.00 0.00 0.00 74 1020.1
20260507125618 50 91 2.6 4.3 0.00 0.00 0.00 75 1020.1
20260507125603 50 92 2.6 4.3 0.00 0.00 0.00 75 1020.1
20260507125218 50 93 2.6 3.5 0.00 0.00 0.00 76 1020.0
20260507125203 50 94 2.6 3.5 0.00 0.00 0.00 76 1020.0
20260507124803 50 93 3.5 5.2 0.00 0.00 0.00 74 1020.1
20260507124603 50 88 3.5 4.3 0.00 0.00 0.00 75 1020.2
20260507124403 50 90 3.5 5.2 0.00 0.00 0.00 74 1020.2
20260507124203 50 85 2.6 3.5 0.00 0.00 0.00 75 1020.0
20260507124003 50 84 2.6 3.5 0.00 0.00 0.00 75 1020.1
20260507123803 50 86 2.6 5.2 0.00 0.00 0.00 76 1019.9
20260507123603 50 84 2.6 4.3 0.00 0.00 0.00 74 1020.0
20260507123403 50 78 2.6 3.5 0.00 0.00 0.00 76 1020.0
20260507123203 50 82 2.6 4.3 0.00 0.00 0.00 76 1020.0
20260507123003 50 77 2.6 4.3 0.00 0.00 0.00 75 1020.0
20260507122803 49 77 2.6 3.5 0.00 0.00 0.00 76 1019.8
20260507122603 49 80 2.6 2.6 0.00 0.00 0.00 76 1020.0
20260507122403 49 81 2.6 4.3 0.00 0.00 0.00 76 1019.9
20260507122203 49 80 2.6 7.0 0.00 0.00 0.00 76 1020.0
20260507122003 49 86 2.6 5.2 0.00 0.00 0.00 76 1020.0
20260507121803 49 85 2.6 3.5 0.00 0.00 0.00 77 1019.8
20260507121603 49 84 2.6 4.3 0.00 0.00 0.00 77 1019.9
20260507121403 49 86 2.6 4.3 0.00 0.00 0.00 78 1020.0
20260507121203 49 83 2.6 3.5 0.00 0.00 0.00 79 1019.9
20260507121003 48 83 2.6 3.5 0.00 0.00 0.00 79 1020.0
20260507120803 48 82 2.6 3.5 0.00 0.00 0.00 79 1019.9
20260507120603 48 83 2.6 3.5 0.00 0.00 0.00 79 1019.9
20260507120417 48 80 2.6 3.5 0.00 0.00 0.00 79 1020.0
20260507120403 48 79 2.6 3.5 0.00 0.00 0.00 79 1020.0
20260507120003 48 84 2.6 3.5 0.00 0.00 0.00 79 1019.9
20260507115803 48 83 2.6 3.5 0.00 0.00 0.00 79 1019.7
20260507115603 48 82 2.6 3.5 0.00 0.00 0.00 80 1019.7
20260507115403 48 81 2.6 3.5 0.00 0.00 0.00 79 1019.9
20260507115203 48 80 2.6 3.5 0.00 0.00 0.00 80 1019.8
20260507115003 48 76 2.6 4.3 0.00 0.00 0.00 80 1019.9
20260507114803 48 75 2.6 4.3 0.00 0.00 0.00 80 1019.9
20260507114603 48 76 2.6 3.5 0.00 0.00 0.00 80 1019.8
20260507114403 48 79 2.6 4.3 0.00 0.00 0.00 80 1019.9
20260507114218 48 79 2.6 3.5 0.00 0.00 0.00 80 1019.7
20260507114203 48 81 2.6 3.5 0.00 0.00 0.00 80 1019.7
20260507114017 48 88 2.6 3.5 0.00 0.00 0.00 80 1019.8
20260507113603 48 97 3.5 3.5 0.00 0.00 0.00 80 1019.8
20260507113403 48 99 3.5 4.3 0.00 0.00 0.00 80 1019.7
20260507113203 47 96 3.5 5.2 0.00 0.00 0.00 80 1019.8
20260507113003 47 94 2.6 3.5 0.00 0.00 0.00 81 1019.9
20260507112803 47 89 2.6 5.2 0.00 0.00 0.00 80 1019.7
20260507112603 48 88 2.6 5.2 0.00 0.00 0.00 81 1019.6
20260507112403 47 80 2.6 3.5 0.00 0.00 0.00 82 1019.8
20260507112203 47 76 2.6 5.2 0.00 0.00 0.00 81 1019.6
20260507112017 47 80 3.5 2.6 0.00 0.00 0.00 81 1019.5
20260507112003 47 81 3.5 2.6 0.00 0.00 0.00 81 1019.5
20260507111603 47 83 2.6 3.5 0.00 0.00 0.00 81 1019.4
20260507111403 47 89 2.6 7.0 0.00 0.00 0.00 81 1019.5
20260507111203 47 93 2.6 4.3 0.00 0.00 0.00 81 1019.5
20260507111017 47 87 2.6 4.3 0.00 0.00 0.00 81 1019.6
20260507111003 47 86 2.6 4.3 0.00 0.00 0.00 81 1019.6
20260507110818 47 87 2.6 3.5 0.00 0.00 0.00 82 1019.7
20260507110403 47 85 2.6 4.3 0.00 0.00 0.00 82 1019.6
20260507110203 47 88 2.6 5.2 0.00 0.00 0.00 82 1019.4
20260507110003 47 89 2.6 3.5 0.00 0.00 0.00 82 1019.6
20260507105803 47 90 2.6 3.5 0.00 0.00 0.00 83 1019.5
20260507105603 47 92 2.6 3.5 0.00 0.00 0.00 83 1019.6
20260507105403 47 93 2.6 3.5 0.00 0.00 0.00 83 1019.7
20260507105203 47 92 2.6 6.1 0.00 0.00 0.00 83 1019.6
20260507105003 47 94 2.6 3.5 0.00 0.00 0.00 83 1019.6
20260507104803 47 93 2.6 4.3 0.00 0.00 0.00 82 1019.7
20260507104617 47 91 2.6 4.3 0.00 0.00 0.00 83 1019.5
20260507104603 47 92 2.6 4.3 0.00 0.00 0.00 83 1019.5
20260507104203 47 87 2.6 3.5 0.00 0.00 0.00 83 1019.5
20260507104019 47 87 2.6 4.3 0.00 0.00 0.00 83 1019.4
20260507104003 47 86 2.6 4.3 0.00 0.00 0.00 83 1019.4
20260507103818 47 84 3.5 5.2 0.00 0.00 0.00 83 1019.5
20260507103403 47 97 2.6 3.5 0.00 0.00 0.00 83 1019.5
20260507103203 47 101 2.6 6.1 0.00 0.00 0.00 82 1019.5
20260507103016 48 105 2.6 3.5 0.00 0.00 0.00 83 1019.4
20260507103003 48 105 2.6 3.5 0.00 0.00 0.00 83 1019.4
20260507102603 48 106 2.6 5.2 0.00 0.00 0.00 82 1019.2
20260507102403 48 102 2.6 3.5 0.00 0.00 0.00 81 1019.4
20260507102203 48 99 2.6 5.2 0.00 0.00 0.00 81 1019.5
20260507102003 48 96 2.6 3.5 0.00 0.00 0.00 80 1019.4
20260507101803 48 92 2.6 3.5 0.00 0.00 0.00 79 1019.3
20260507101603 48 92 2.6 3.5 0.00 0.00 0.00 79 1019.4
20260507101403 48 91 2.6 4.3 0.00 0.00 0.00 79 1019.4
20260507101003 48 85 2.6 2.6 0.00 0.00 0.00 78 1019.4
20260507100803 48 84 2.6 3.5 0.00 0.00 0.00 78 1019.3
20260507100603 49 80 2.6 3.5 0.00 0.00 0.00 77 1019.1
20260507100418 49 78 2.6 4.3 0.00 0.00 0.00 78 1019.3
20260507100403 49 80 2.6 4.3 0.00 0.00 0.00 78 1019.3
20260507100003 49 80 2.6 3.5 0.00 0.00 0.00 79 1019.1
20260507095803 49 83 2.6 3.5 0.00 0.00 0.00 79 1019.0
20260507095603 49 84 2.6 4.3 0.00 0.00 0.00 78 1019.0
20260507095403 49 83 2.6 4.3 0.00 0.00 0.00 80 1019.0
20260507095203 48 85 2.6 2.6 0.00 0.00 0.00 78 1019.0
20260507095003 48 81 2.6 5.2 0.00 0.00 0.00 78 1019.1
20260507094803 48 83 2.6 3.5 0.00 0.00 0.00 79 1019.0
20260507094603 48 83 2.6 4.3 0.00 0.00 0.00 79 1018.9
20260507094418 48 83 2.6 3.5 0.00 0.00 0.00 78 1019.0
20260507094403 48 81 2.6 3.5 0.00 0.00 0.00 79 1019.0
20260507094003 48 84 2.6 3.5 0.00 0.00 0.00 78 1018.8
20260507093803 48 79 2.6 4.3 0.00 0.00 0.00 79 1018.8
20260507093603 48 78 2.6 2.6 0.00 0.00 0.00 80 1018.7
20260507093403 48 80 2.6 3.5 0.00 0.00 0.00 80 1018.7
20260507093217 48 82 2.6 3.5 0.00 0.00 0.00 80 1019.0
20260507093203 48 82 2.6 3.5 0.00 0.00 0.00 80 1019.0
20260507092803 47 86 2.6 2.6 0.00 0.00 0.00 81 1018.6
20260507092603 47 90 3.5 4.3 0.00 0.00 0.00 80 1018.4
20260507092403 47 94 2.6 6.1 0.00 0.00 0.00 79 1018.7
20260507092203 48 91 2.6 5.2 0.00 0.00 0.00 80 1018.5
20260507092003 48 91 2.6 3.5 0.00 0.00 0.00 80 1018.7
20260507091803 48 91 2.6 7.8 0.00 0.00 0.00 80 1018.7
20260507091616 48 87 2.6 3.5 0.00 0.00 0.00 80 1018.7
20260507091603 48 88 2.6 3.5 0.00 0.00 0.00 79 1018.7
20260507091203 47 87 2.6 3.5 0.00 0.00 0.00 81 1018.4
20260507091003 48 87 2.6 2.6 0.00 0.00 0.00 80 1018.6
20260507090817 47 83 2.6 2.6 0.00 0.00 0.00 80 1018.5
20260507090803 47 81 2.6 2.6 0.00 0.00 0.00 81 1018.5
20260507090403 47 81 2.6 3.5 0.00 0.00 0.00 81 1018.5
20260507090203 47 83 2.6 3.5 0.00 0.00 0.00 80 1018.4
20260507085817 47 90 2.6 3.5 0.00 0.00 0.00 81 1018.4
20260507085803 47 91 2.6 3.5 0.00 0.00 0.00 81 1018.4
20260507085403 47 89 2.6 3.5 0.00 0.00 0.00 81 1018.3
20260507085203 47 85 2.6 4.3 0.00 0.00 0.00 80 1018.3
20260507085003 47 83 2.6 3.5 0.00 0.00 0.00 81 1018.4
20260507084803 47 83 2.6 2.6 0.00 0.00 0.00 82 1018.3
20260507084603 47 83 2.6 4.3 0.00 0.00 0.00 81 1018.2
20260507084403 47 82 2.6 4.3 0.00 0.00 0.00 80 1018.3
20260507084203 47 81 2.6 5.2 0.00 0.00 0.00 80 1018.3
20260507084003 47 81 2.6 5.2 0.00 0.01 0.00 80 1018.1
20260507083803 47 78 2.6 3.5 0.00 0.01 0.00 80 1018.3
20260507083603 47 82 2.6 4.3 0.00 0.01 0.00 80 1018.2
20260507083403 47 84 2.6 2.6 0.00 0.01 0.00 81 1018.1
20260507083203 47 87 3.5 3.5 0.00 0.01 0.00 81 1018.2
20260507083003 47 91 3.5 2.6 0.00 0.01 0.00 80 1018.1
20260507082803 47 92 3.5 6.1 0.00 0.01 0.00 79 1018.1
20260507082603 47 87 2.6 3.5 0.00 0.01 0.00 82 1018.0
20260507082417 47 91 2.6 4.3 0.00 0.02 0.00 81 1017.9
20260507082403 47 93 2.6 3.5 0.00 0.02 0.00 81 1017.9
20260507082003 47 82 2.6 2.6 0.00 0.02 0.00 81 1018.1
20260507081803 47 83 2.6 2.6 0.00 0.02 0.00 81 1018.0
20260507081603 47 81 2.6 4.3 0.00 0.02 0.00 80 1017.9
20260507081403 47 76 2.6 3.5 0.00 0.02 0.00 81 1018.0
20260507081203 47 79 2.6 3.5 0.00 0.02 0.00 80 1017.9
20260507081003 47 79 2.6 2.6 0.00 0.02 0.00 81 1018.0
20260507080803 47 81 2.6 5.2 0.00 0.02 0.00 81 1017.8
20260507080603 47 87 2.6 3.5 0.00 0.02 0.00 81 1017.9
20260507080403 47 90 2.6 5.2 0.00 0.02 0.00 81 1018.1
20260507080203 47 87 2.6 3.5 0.00 0.02 0.00 82 1017.9
20260507080003 47 91 2.6 2.6 0.00 0.02 0.00 81 1017.8
20260507075817 47 89 2.6 3.5 0.00 0.02 0.00 82 1017.8
20260507075803 47 87 2.6 3.5 0.00 0.02 0.00 82 1017.8
20260507075403 47 92 2.6 3.5 0.00 0.02 0.00 83 1017.6
20260507075203 46 92 2.6 4.3 0.00 0.02 0.00 83 1017.5
20260507075003 46 89 2.6 4.3 0.00 0.02 0.00 83 1017.8
20260507074803 46 95 2.6 3.5 0.00 0.03 0.00 83 1017.6
20260507074603 46 91 2.6 4.3 0.00 0.03 0.00 82 1017.6
20260507074403 46 85 2.6 4.3 0.00 0.03 0.00 83 1017.5
20260507074203 46 88 2.6 3.5 0.00 0.03 0.00 83 1017.6
20260507074018 46 89 2.6 6.1 0.00 0.03 0.00 83 1017.3
20260507074003 46 90 2.6 4.3 0.00 0.03 0.00 83 1017.3
20260507073603 46 90 2.6 3.5 0.00 0.03 0.00 83 1017.2
20260507073403 46 89 2.6 5.2 0.00 0.04 0.00 83 1017.6
20260507073203 46 89 2.6 5.2 0.00 0.04 0.00 84 1017.6
20260507073003 46 90 2.6 4.3 0.00 0.04 0.00 83 1017.5
20260507072816 46 88 2.6 2.6 0.00 0.04 0.00 83 1017.3
20260507072803 46 87 2.6 3.5 0.00 0.04 0.00 83 1017.3
20260507072403 46 81 2.6 3.5 0.00 0.04 0.00 84 1017.5
20260507072203 46 78 2.6 4.3 0.00 0.04 0.00 84 1017.2
20260507072003 46 77 2.6 3.5 0.00 0.04 0.00 84 1017.2
20260507071803 46 83 2.6 5.2 0.00 0.05 0.00 84 1017.3
20260507071603 46 84 2.6 3.5 0.00 0.05 0.00 83 1017.2
20260507071403 46 89 2.6 4.3 0.00 0.05 0.00 83 1017.3
20260507071203 46 90 2.6 3.5 0.00 0.05 0.00 84 1017.1
20260507071003 46 92 2.6 4.3 0.00 0.06 0.00 83 1017.4
20260507070816 46 89 2.6 3.5 0.00 0.06 0.00 84 1017.3
20260507070803 46 88 2.6 4.3 0.00 0.06 0.00 84 1017.3
20260507070403 46 88 2.6 3.5 0.00 0.06 0.00 85 1017.3
20260507070203 46 88 2.6 3.5 0.00 0.06 0.00 85 1017.4
20260507070005 46 82 2.6 3.5 0.00 0.07 0.00 85 1017.2
20260507065803 46 84 2.6 3.5 0.00 0.07 0.00 85 1017.2
20260507065603 46 83 2.6 3.5 0.00 0.07 0.00 85 1017.2
20260507065403 46 83 2.6 3.5 0.00 0.07 0.00 85 1017.2
20260507065203 46 84 2.6 4.3 0.00 0.07 0.00 85 1017.3
20260507065003 46 88 2.6 4.3 0.00 0.07 0.00 85 1017.1
20260507064803 46 84 2.6 3.5 0.00 0.08 0.00 86 1017.1
20260507064603 46 81 2.6 3.5 0.00 0.08 0.00 86 1017.3
20260507064403 46 82 2.6 3.5 0.00 0.08 0.00 85 1017.1
20260507064218 46 85 2.6 3.5 0.00 0.09 0.00 86 1016.9
20260507064203 46 85 2.6 3.5 0.00 0.09 0.00 86 1016.9
20260507063803 46 88 2.6 3.5 0.00 0.09 0.00 86 1017.0
20260507063603 46 90 2.6 3.5 0.00 0.10 0.00 86 1017.0
20260507063203 46 86 2.6 5.2 0.00 0.11 0.00 86 1017.1
20260507063003 46 81 2.6 4.3 0.00 0.11 0.00 86 1017.1
20260507062803 46 86 2.6 3.5 0.00 0.11 0.00 86 1016.9
20260507062603 46 87 2.6 4.3 0.00 0.12 0.00 86 1016.8
20260507062403 46 98 2.6 5.2 0.00 0.13 0.00 86 1016.9
20260507062218 46 97 2.6 4.3 0.00 0.13 0.00 86 1016.8
20260507062203 46 98 2.6 4.3 0.00 0.13 0.00 86 1016.8
20260507061803 46 100 2.6 2.6 0.00 0.14 0.00 87 1017.0
20260507061603 46 104 2.6 3.5 0.00 0.15 0.00 86 1016.9
20260507061418 46 101 2.6 3.5 0.00 0.15 0.00 86 1016.8
20260507061003 46 98 2.6 3.5 0.00 0.17 0.00 87 1016.6
20260507060803 46 98 2.6 5.2 0.00 0.17 0.00 86 1016.6
20260507060603 46 90 2.6 2.6 0.00 0.17 0.00 86 1016.5
20260507060403 46 89 2.6 3.5 0.00 0.17 0.00 87 1016.6
20260507060218 46 88 2.6 3.5 0.00 0.18 0.00 87 1016.6
20260507060203 46 88 2.6 5.2 0.00 0.18 0.00 87 1016.6
20260507055803 46 85 2.6 4.3 0.00 0.18 0.00 87 1016.5
20260507055603 46 85 2.6 3.5 0.00 0.18 0.00 87 1016.8
20260507055416 46 86 2.6 3.5 0.00 0.19 0.00 87 1016.6
20260507055403 46 87 2.6 3.5 0.00 0.19 0.00 87 1016.6
20260507055003 46 82 2.6 3.5 0.00 0.19 0.00 87 1016.5
20260507054803 46 81 2.6 3.5 0.00 0.19 0.00 87 1016.8
20260507054603 46 82 2.6 3.5 0.00 0.19 0.00 87 1016.5
20260507054403 46 76 2.6 3.5 0.00 0.19 0.00 87 1016.6
20260507054203 46 72 2.6 4.3 0.00 0.19 0.00 87 1016.5
20260507054003 46 73 2.6 3.5 0.00 0.19 0.00 87 1016.3
20260507053818 46 72 2.6 3.5 0.00 0.19 0.00 87 1016.5
20260507053803 46 71 2.6 3.5 0.00 0.19 0.00 87 1016.5
20260507053403 46 75 2.6 5.2 0.00 0.20 0.00 86 1016.3
20260507053203 46 78 2.6 3.5 0.00 0.20 0.00 86 1016.4
20260507052803 46 79 2.6 4.3 0.00 0.20 0.00 87 1016.3
20260507052603 46 78 2.6 3.5 0.00 0.20 0.00 87 1016.3
20260507052403 46 79 2.6 3.5 0.00 0.20 0.00 86 1016.3
20260507052203 46 77 2.6 5.2 0.00 0.20 0.00 86 1016.2
20260507052003 46 77 2.6 4.3 0.00 0.21 0.00 87 1016.2
20260507051803 46 77 2.6 5.2 0.00 0.21 0.00 87 1016.2
20260507051603 46 82 2.6 7.8 0.00 0.21 0.00 86 1016.2
20260507051404 46 81 2.6 3.5 0.00 0.21 0.00 87 1016.1
20260507051203 46 83 2.6 4.3 0.00 0.21 0.00 87 1016.2
20260507051003 46 82 2.6 2.6 0.00 0.21 0.00 87 1016.0
20260507050803 46 81 2.6 4.3 0.00 0.22 0.00 87 1016.3
20260507050603 46 77 2.6 2.6 0.00 0.22 0.00 87 1016.2
20260507050403 45 77 2.6 2.6 0.00 0.22 0.00 86 1015.9
20260507050203 45 78 2.6 3.5 0.00 0.22 0.00 87 1016.0
20260507050003 46 81 2.6 3.5 0.00 0.22 0.00 86 1015.9
20260507045803 46 84 2.6 3.5 0.00 0.22 0.00 87 1016.1
20260507045603 46 87 2.6 3.5 0.00 0.22 0.00 87 1016.0
20260507045403 46 86 2.6 3.5 0.00 0.23 0.00 87 1016.2
20260507045217 45 89 2.6 3.5 0.00 0.23 0.00 87 1016.0
20260507045203 45 90 2.6 3.5 0.00 0.23 0.00 87 1016.0
20260507044803 45 91 2.6 3.5 0.00 0.23 0.00 87 1015.8
20260507044603 45 92 2.6 3.5 0.00 0.24 0.00 87 1015.9
20260507044403 45 95 2.6 4.3 0.00 0.24 0.00 87 1015.9
20260507044003 45 94 2.6 2.6 0.00 0.24 0.00 87 1016.1
20260507043803 45 90 2.6 3.5 0.00 0.24 0.00 87 1015.8
20260507043603 45 84 2.6 3.5 0.00 0.24 0.00 87 1015.8
20260507043403 45 83 2.6 2.6 0.00 0.24 0.00 88 1015.8
20260507043203 45 82 2.6 3.5 0.00 0.24 0.00 88 1015.9
20260507043003 45 82 2.6 3.5 0.00 0.24 0.00 88 1015.9
20260507042803 45 86 2.6 3.5 0.00 0.25 0.00 88 1015.8
20260507042603 45 91 2.6 3.5 0.00 0.25 0.00 87 1015.8
20260507042403 45 91 2.6 3.5 0.00 0.25 0.00 88 1016.0
20260507042217 45 90 2.6 3.5 0.00 0.25 0.00 87 1015.8
20260507042203 45 90 2.6 3.5 0.00 0.25 0.00 88 1015.8
20260507042016 45 91 2.6 2.6 0.00 0.25 0.00 87 1015.8
20260507041603 45 81 2.6 3.5 0.00 0.25 0.00 87 1015.5
20260507041403 45 76 2.6 3.5 0.00 0.25 0.00 87 1015.8
20260507041203 45 77 2.6 3.5 0.00 0.26 0.00 88 1015.6
20260507041003 45 76 2.6 3.5 0.00 0.26 0.00 87 1015.5
20260507040803 45 81 2.6 5.2 0.00 0.26 0.00 87 1015.6
20260507040603 45 83 2.6 3.5 0.00 0.26 0.00 87 1015.6
20260507040403 45 86 2.6 4.3 0.00 0.26 0.00 87 1015.6
20260507040203 45 85 2.6 3.5 0.00 0.26 0.00 87 1015.5
20260507040018 45 87 2.6 2.6 0.00 0.26 0.00 87 1015.5
20260507040003 45 88 2.6 3.5 0.00 0.26 0.00 87 1015.5
20260507035603 45 86 2.6 4.3 0.00 0.26 0.00 87 1015.3
20260507035417 45 86 2.6 3.5 0.00 0.26 0.00 87 1015.8
20260507035018 45 86 2.6 4.3 0.00 0.26 0.00 87 1015.6
20260507035003 45 85 2.6 4.3 0.00 0.26 0.00 87 1015.6
20260507034603 45 85 2.6 2.6 0.00 0.27 0.00 87 1015.6
20260507034404 45 86 2.6 3.5 0.00 0.27 0.00 87 1015.5
20260507034203 45 86 2.6 2.6 0.00 0.27 0.00 87 1015.5
20260507034018 45 87 2.6 3.5 0.00 0.28 0.00 87 1015.5
20260507034003 45 88 2.6 3.5 0.00 0.28 0.00 87 1015.5
20260507033603 45 89 2.6 4.3 0.00 0.28 0.00 87 1015.5
20260507033403 45 85 2.6 3.5 0.00 0.28 0.00 87 1015.6
20260507033203 45 81 2.6 2.6 0.00 0.28 0.00 87 1015.7
20260507033003 45 80 2.6 4.3 0.00 0.28 0.00 87 1015.5
20260507032803 45 79 2.6 3.5 0.00 0.29 0.00 87 1015.6
20260507032603 45 76 2.6 3.5 0.00 0.29 0.00 87 1015.4
20260507032403 45 76 2.6 3.5 0.00 0.29 0.00 87 1015.4
20260507032203 45 79 2.6 3.5 0.00 0.29 0.00 87 1015.4
20260507031803 45 83 2.6 5.2 0.00 0.30 0.00 87 1015.4
20260507031603 45 87 2.6 3.5 0.00 0.30 0.00 86 1015.3
20260507031403 45 88 2.6 3.5 0.00 0.30 0.00 86 1015.4
20260507031203 45 88 2.6 3.5 0.00 0.30 0.00 86 1015.6
20260507031003 45 86 2.6 5.2 0.00 0.31 0.00 86 1015.3
20260507030803 45 83 2.6 3.5 0.00 0.31 0.00 86 1015.3
20260507030618 45 84 2.6 3.5 0.00 0.31 0.00 86 1015.4
20260507030603 45 84 2.6 3.5 0.00 0.31 0.00 87 1015.4
20260507030203 45 82 2.6 3.5 0.00 0.32 0.00 87 1015.5
20260507030003 45 78 2.6 2.6 0.00 0.32 0.00 87 1015.3
20260507025803 45 80 2.6 4.3 0.00 0.33 0.00 87 1015.3
20260507025603 45 79 2.6 5.2 0.00 0.33 0.00 87 1015.3
20260507025203 45 79 2.6 3.5 0.00 0.34 0.00 86 1015.3
20260507025003 45 83 2.6 3.5 0.00 0.34 0.00 86 1015.4
20260507024803 45 80 2.6 2.6 0.00 0.35 0.00 86 1015.2
20260507024603 45 78 2.6 3.5 0.00 0.35 0.00 86 1015.1
20260507024403 45 78 2.6 3.5 0.00 0.36 0.00 86 1015.3
20260507024203 45 81 2.6 3.5 0.00 0.37 0.00 86 1015.2
20260507024003 45 74 2.6 3.5 0.00 0.37 0.00 86 1015.3
20260507023803 45 74 2.6 3.5 0.00 0.38 0.00 86 1015.2
20260507023603 45 77 2.6 4.3 0.00 0.39 0.00 86 1015.5
20260507023417 45 79 2.6 2.6 0.00 0.39 0.00 86 1015.0
20260507023403 45 80 2.6 2.6 0.00 0.39 0.00 85 1015.0
20260507023003 45 87 2.6 4.3 0.00 0.41 0.00 85 1015.1
20260507022803 45 88 2.6 3.5 0.00 0.41 0.00 86 1015.1
20260507022603 45 89 2.6 3.5 0.00 0.42 0.00 86 1015.2
20260507022403 45 89 2.6 5.2 0.00 0.43 0.00 86 1014.9
20260507022203 45 86 2.6 3.5 0.00 0.43 0.00 86 1014.9
20260507022003 45 89 2.6 4.3 0.00 0.43 0.00 86 1015.0
20260507021804 45 92 2.6 5.2 0.00 0.44 0.00 86 1015.0
20260507021603 45 87 2.6 3.5 0.00 0.44 0.00 85 1014.9
20260507021404 45 87 2.6 2.6 0.00 0.45 0.00 86 1014.8
20260507021203 45 87 2.6 3.5 0.00 0.46 0.00 86 1015.0
20260507021003 45 82 2.6 3.5 0.00 0.47 0.00 86 1014.8
20260507020803 45 76 2.6 4.3 0.00 0.47 0.00 86 1015.2
20260507020603 45 75 2.6 3.5 0.00 0.48 0.00 86 1015.0
20260507020403 45 75 2.6 4.3 0.00 0.48 0.00 87 1014.9
20260507020203 45 74 2.6 3.5 0.00 0.49 0.00 86 1015.1
20260507020003 45 79 2.6 2.6 0.00 0.50 0.00 86 1014.9
20260507015803 45 79 2.6 5.2 0.00 0.50 0.00 86 1014.9
20260507015603 45 83 2.6 4.3 0.00 0.51 0.00 86 1014.9
20260507015403 45 82 2.6 2.6 0.00 0.52 0.00 87 1014.8
20260507015203 45 83 2.6 5.2 0.00 0.52 0.00 87 1014.8
20260507015003 45 83 2.6 3.5 0.00 0.53 0.00 87 1014.8
20260507014803 45 84 2.6 2.6 0.00 0.54 0.00 87 1014.8
20260507014603 45 82 2.6 2.6 0.00 0.54 0.00 86 1014.9
20260507014403 45 81 2.6 3.5 0.00 0.54 0.00 86 1014.8
20260507014203 45 81 2.6 6.1 0.00 0.55 0.00 86 1014.7
20260507014003 45 78 2.6 4.3 0.00 0.56 0.00 86 1014.8
20260507013803 45 81 2.6 6.1 0.00 0.56 0.00 86 1014.7
20260507013403 45 88 2.6 4.3 0.00 0.57 0.00 86 1014.7
20260507013203 45 86 2.6 3.5 0.00 0.57 0.00 86 1014.6
20260507013003 45 83 2.6 3.5 0.00 0.58 0.00 86 1014.5
20260507012803 45 82 2.6 3.5 0.00 0.58 0.00 86 1014.7
20260507012603 45 87 2.6 3.5 0.00 0.59 0.00 86 1014.3
20260507012403 45 81 2.6 4.3 0.00 0.59 0.00 86 1014.5
20260507012203 45 84 2.6 3.5 0.00 0.59 0.00 86 1014.8
20260507012003 45 88 2.6 3.5 0.00 0.60 0.00 86 1014.6
20260507011603 45 86 2.6 4.3 0.00 0.61 0.00 86 1014.7
20260507011403 45 92 2.6 2.6 0.00 0.61 0.00 86 1014.7
20260507011203 45 94 2.6 3.5 0.00 0.61 0.00 86 1014.9
20260507011017 45 96 2.6 3.5 0.00 0.62 0.00 86 1014.7
20260507010603 45 95 2.6 4.3 0.00 0.63 0.00 85 1014.9
20260507010403 45 94 2.6 4.3 0.00 0.63 0.00 85 1015.0
20260507010203 45 92 2.6 5.2 0.00 0.63 0.00 85 1014.9
20260507010003 45 87 2.6 4.3 0.00 0.63 0.00 85 1015.0
20260507005803 46 87 2.6 5.2 0.00 0.64 0.00 85 1015.0
20260507005603 46 84 2.6 3.5 0.00 0.64 0.00 85 1015.0
20260507005416 46 92 3.5 5.2 0.00 0.64 0.00 85 1014.9
20260507005403 46 93 3.5 5.2 0.00 0.64 0.00 85 1014.9
20260507005003 46 91 2.6 3.5 0.00 0.65 0.00 85 1014.9
20260507004803 46 93 2.6 5.2 0.00 0.65 0.00 86 1014.9
20260507004603 46 95 2.6 6.1 0.00 0.65 0.00 86 1014.7
20260507004416 46 87 2.6 7.0 0.00 0.65 0.00 86 1014.8
20260507004403 46 85 2.6 3.5 0.00 0.65 0.00 87 1014.8
20260507004003 46 85 2.6 3.5 0.00 0.65 0.00 86 1014.7
20260507003603 47 78 2.6 5.2 0.00 0.66 0.00 86 1014.7
20260507003403 47 81 2.6 3.5 0.00 0.66 0.00 87 1014.5
20260507003203 47 84 2.6 3.5 0.00 0.67 0.00 87 1014.7
20260507003017 47 83 2.6 2.6 0.00 0.67 0.00 87 1014.6
20260507003003 47 82 2.6 2.6 0.00 0.67 0.00 87 1014.6
20260507002603 47 85 2.6 3.5 0.00 0.67 0.00 86 1014.4
20260507002403 47 83 2.6 4.3 0.00 0.67 0.00 87 1014.3
20260507002003 47 87 2.6 5.2 0.00 0.68 0.00 87 1014.3
20260507001803 47 87 2.6 4.3 0.00 0.68 0.00 87 1014.5
20260507001603 47 86 2.6 3.5 0.00 0.68 0.00 87 1014.4
20260507001403 47 86 2.6 3.5 0.00 0.68 0.00 87 1014.4
20260507001203 48 87 2.6 8.7 0.00 0.68 0.00 86 1014.2
20260507001003 48 86 2.6 4.3 0.00 0.69 0.00 87 1013.8
20260507000803 48 87 2.6 4.3 0.00 0.69 0.00 87 1014.1
20260507000603 48 87 2.6 3.5 0.00 0.69 0.00 87 1013.8
20260507000405 48 90 2.6 2.6 0.00 0.69 0.00 87 1014.0
20260507000205 48 94 2.6 3.5 0.00 0.69 0.00 87 1014.0
20260507000003 48 90 2.6 3.5 0.00 0.69 0.00 88 1014.1
20260506235803 48 94 2.6 3.5 0.00 0.69 0.00 87 1014.2
20260506235603 48 96 2.6 3.5 0.00 0.69 0.00 87 1014.0
20260506235403 48 97 2.6 4.3 0.00 0.69 0.00 87 1014.2
20260506235203 48 97 2.6 2.6 0.00 0.70 0.00 87 1014.1
20260506235003 48 98 2.6 5.2 0.00 0.70 0.00 87 1014.0
20260506234818 48 94 2.6 4.3 0.00 0.70 0.00 87 1013.9
20260506234803 48 95 2.6 4.3 0.00 0.70 0.00 87 1013.9
20260506234418 49 94 2.6 3.5 0.00 0.70 0.00 87 1014.0
20260506234403 49 93 2.6 3.5 0.00 0.70 0.00 87 1014.0
20260506234003 49 89 2.6 3.5 0.00 0.70 0.00 87 1013.9
20260506233803 49 93 3.5 3.5 0.00 0.70 0.00 87 1013.7
20260506233603 49 86 3.5 4.3 0.00 0.70 0.00 86 1013.8
20260506233418 49 85 3.5 5.2 0.00 0.70 0.00 86 1013.9
20260506233403 49 87 3.5 4.3 0.00 0.70 0.00 86 1013.9
20260506233217 49 87 3.5 6.1 0.00 0.70 0.00 86 1013.9
20260506232803 49 83 2.6 3.5 0.00 0.70 0.00 86 1013.8
20260506232603 49 90 2.6 4.3 0.00 0.70 0.00 86 1013.7
20260506232403 50 84 2.6 4.3 0.00 0.70 0.00 86 1013.8
20260506232217 50 81 2.6 2.6 0.00 0.70 0.00 86 1013.8
20260506232203 50 82 2.6 3.5 0.00 0.70 0.00 86 1013.8
20260506231803 50 86 2.6 3.5 0.00 0.71 0.00 86 1013.8
20260506231403 50 83 2.6 3.5 0.00 0.71 0.00 86 1013.7
20260506231203 50 82 2.6 3.5 0.00 0.71 0.00 86 1013.8
20260506231003 50 79 2.6 2.6 0.00 0.71 0.00 86 1013.6
20260506230803 50 78 2.6 4.3 0.00 0.71 0.00 86 1013.7
20260506230617 50 78 2.6 3.5 0.00 0.71 0.00 86 1013.8
20260506230603 50 79 2.6 3.5 0.00 0.71 0.00 86 1013.8
20260506230203 50 81 2.6 3.5 0.00 0.71 0.00 86 1013.9
20260506230003 50 79 2.6 3.5 0.00 0.71 0.00 86 1013.8
20260506225803 50 76 2.6 4.3 0.00 0.72 0.00 87 1013.8
20260506225603 50 84 2.6 3.5 0.00 0.72 0.00 86 1013.6
20260506225403 50 84 2.6 3.5 0.00 0.72 0.00 86 1013.6
20260506225203 50 84 2.6 3.5 0.00 0.72 0.00 87 1013.9
20260506225018 50 86 2.6 4.3 0.00 0.72 0.00 87 1013.7
20260506225003 50 88 2.6 4.3 0.00 0.72 0.00 87 1013.7
20260506224817 50 92 2.6 4.3 0.00 0.72 0.00 86 1013.6
20260506224403 50 82 2.6 3.5 0.00 0.72 0.00 86 1013.7
20260506224203 50 86 2.6 3.5 0.00 0.72 0.00 87 1013.7
20260506224003 50 88 2.6 3.5 0.00 0.72 0.00 87 1013.7
20260506223803 50 89 2.6 2.6 0.00 0.72 0.00 87 1013.8
20260506223616 50 88 2.6 3.5 0.00 0.72 0.00 87 1013.5
20260506223603 50 89 2.6 3.5 0.00 0.72 0.00 87 1013.5
20260506223203 50 86 2.6 3.5 0.00 0.72 0.00 87 1013.5
20260506223003 50 88 2.6 4.3 0.00 0.72 0.00 88 1013.7
20260506222803 50 87 2.6 3.5 0.00 0.72 0.00 88 1013.4
20260506222603 50 90 2.6 3.5 0.00 0.72 0.00 88 1013.5
20260506222403 50 86 2.6 3.5 0.00 0.72 0.00 88 1013.6
20260506222203 50 88 2.6 5.2 0.00 0.72 0.00 88 1013.6
20260506222003 50 83 2.6 3.5 0.00 0.72 0.00 87 1013.6
20260506221803 50 83 2.6 3.5 0.00 0.72 0.00 87 1013.3
20260506221603 50 83 2.6 3.5 0.00 0.72 0.00 88 1013.4
20260506221403 50 85 2.6 3.5 0.00 0.72 0.00 87 1013.4
20260506221217 50 89 2.6 3.5 0.00 0.72 0.00 88 1013.5
20260506221203 50 88 2.6 3.5 0.00 0.72 0.00 88 1013.5
20260506220803 50 87 2.6 3.5 0.00 0.72 0.00 88 1013.4
20260506220603 50 83 2.6 3.5 0.00 0.72 0.00 88 1013.4
20260506220417 50 82 2.6 3.5 0.00 0.72 0.00 88 1013.7
20260506220403 50 83 2.6 3.5 0.00 0.72 0.00 88 1013.7
20260506220219 50 79 2.6 3.5 0.00 0.72 0.00 89 1013.5
20260506220018 50 79 2.6 2.6 0.00 0.72 0.00 89 1013.6
20260506215603 51 84 2.6 2.6 0.00 0.72 0.72 89 1013.5
20260506215403 51 83 2.6 3.5 0.00 0.72 0.72 89 1013.5
20260506215003 51 80 2.6 3.5 0.00 0.72 0.72 89 1013.8
20260506214803 51 81 2.6 2.6 0.00 0.72 0.72 89 1013.8
20260506214403 51 80 2.6 3.5 0.00 0.72 0.72 89 1013.7
20260506214003 51 85 2.6 3.5 0.00 0.72 0.72 89 1013.8
20260506213803 51 82 2.6 3.5 0.00 0.72 0.72 89 1013.6
20260506213603 51 88 2.6 2.6 0.00 0.72 0.72 89 1013.7
20260506213403 51 90 2.6 3.5 0.00 0.72 0.72 89 1013.6
20260506213203 51 89 2.6 2.6 0.00 0.72 0.72 89 1013.6
20260506213003 51 89 2.6 3.5 0.00 0.72 0.72 89 1013.5
20260506212603 51 88 2.6 3.5 0.00 0.72 0.72 90 1013.8
20260506212403 51 85 2.6 3.5 0.00 0.72 0.72 90 1013.5
20260506212203 51 83 2.6 3.5 0.00 0.72 0.72 90 1013.6
20260506212003 51 83 2.6 3.5 0.00 0.72 0.72 90 1013.3
20260506211803 51 84 2.6 4.3 0.00 0.72 0.72 90 1013.5
20260506211618 51 84 2.6 2.6 0.00 0.72 0.72 90 1013.4
20260506211603 51 83 2.6 3.5 0.00 0.72 0.72 90 1013.4
20260506211203 51 85 2.6 3.5 0.00 0.72 0.72 90 1013.5
20260506211003 51 82 2.6 4.3 0.00 0.72 0.72 90 1013.6
20260506210803 51 79 2.6 2.6 0.00 0.72 0.72 90 1013.6
20260506210618 51 77 2.6 1.7 0.00 0.72 0.72 90 1013.4
20260506210603 51 77 2.6 2.6 0.00 0.72 0.72 90 1013.4
20260506210203 51 77 2.6 4.3 0.00 0.72 0.72 90 1013.3
20260506205803 51 83 2.6 3.5 0.00 0.72 0.72 89 1013.4
20260506205403 51 82 2.6 3.5 0.00 0.72 0.72 90 1013.5
20260506205203 51 81 2.6 2.6 0.00 0.72 0.72 90 1013.5
20260506205003 51 77 2.6 3.5 0.00 0.72 0.72 90 1013.4
20260506204803 51 77 2.6 3.5 0.00 0.72 0.72 90 1013.4
20260506204603 51 77 2.6 2.6 0.00 0.72 0.72 89 1013.2
20260506204403 51 79 2.6 3.5 0.00 0.72 0.72 89 1013.2
20260506204203 51 82 2.6 3.5 0.00 0.72 0.72 89 1013.1
20260506204003 51 83 2.6 2.6 0.00 0.72 0.72 89 1013.2
20260506203803 51 86 2.6 3.5 0.00 0.72 0.72 88 1013.2
20260506203403 51 85 2.6 3.5 0.00 0.72 0.72 88 1013.1
20260506203203 51 83 2.6 3.5 0.00 0.72 0.72 87 1013.3
20260506203003 51 83 2.6 4.3 0.00 0.72 0.72 87 1013.0
20260506202803 51 81 2.6 2.6 0.00 0.72 0.72 88 1013.1
20260506202603 51 80 2.6 3.5 0.00 0.72 0.72 88 1013.1
20260506202403 51 83 2.6 2.6 0.00 0.72 0.72 88 1013.1
20260506202203 51 85 2.6 3.5 0.00 0.72 0.72 88 1013.0
20260506202003 51 82 2.6 3.5 0.00 0.72 0.72 87 1013.2
20260506201803 51 82 2.6 3.5 0.00 0.72 0.72 88 1013.1
20260506201603 51 88 2.6 4.3 0.00 0.72 0.72 88 1013.3
20260506201403 51 85 2.6 3.5 0.00 0.72 0.72 88 1013.1
20260506201203 51 86 2.6 3.5 0.00 0.72 0.72 88 1012.9
20260506201003 51 87 2.6 4.3 0.00 0.72 0.72 88 1013.0
20260506200816 51 86 2.6 5.2 0.00 0.72 0.72 87 1013.0
20260506200803 51 86 2.6 5.2 0.00 0.72 0.72 88 1013.0
20260506200403 51 79 2.6 2.6 0.00 0.72 0.72 87 1012.8
20260506200003 51 80 2.6 2.6 0.00 0.72 0.72 87 1012.8
20260506195803 51 80 2.6 3.5 0.00 0.72 0.72 87 1012.8
20260506195603 51 84 2.6 2.6 0.00 0.72 0.72 88 1013.0
20260506195403 51 87 2.6 3.5 0.00 0.72 0.72 87 1012.9
20260506195203 51 86 2.6 3.5 0.00 0.72 0.72 87 1012.9
20260506195017 51 90 2.6 2.6 0.00 0.72 0.72 87 1013.2
20260506195004 51 91 2.6 2.6 0.00 0.72 0.72 87 1013.2
20260506194603 51 88 2.6 3.5 0.00 0.72 0.72 86 1012.9
20260506194403 51 86 2.6 2.6 0.00 0.72 0.72 86 1013.0
20260506194203 51 86 2.6 2.6 0.00 0.72 0.72 86 1013.1
20260506194003 51 82 2.6 3.5 0.00 0.72 0.72 87 1013.1
20260506193803 51 85 2.6 4.3 0.00 0.72 0.72 87 1012.9
20260506193603 51 89 2.6 3.5 0.00 0.72 0.72 87 1012.8
20260506193403 51 87 2.6 2.6 0.00 0.72 0.72 88 1012.8
20260506193203 51 87 2.6 3.5 0.00 0.72 0.72 88 1013.0
20260506193017 51 89 2.6 4.3 0.00 0.72 0.72 88 1013.0
20260506193003 51 90 2.6 4.3 0.00 0.72 0.72 87 1013.0
20260506192603 51 82 2.6 3.5 0.00 0.72 0.72 88 1013.1
20260506192403 51 85 2.6 2.6 0.00 0.72 0.72 88 1013.0
20260506192203 51 86 2.6 3.5 0.00 0.72 0.72 88 1013.0
20260506192003 51 80 2.6 3.5 0.00 0.72 0.72 88 1013.0
20260506191803 51 78 2.6 2.6 0.00 0.72 0.72 88 1012.9
20260506191617 51 78 2.6 3.5 0.00 0.72 0.72 88 1012.8
20260506191603 51 79 2.6 3.5 0.00 0.72 0.72 88 1012.8
20260506191203 52 79 2.6 3.5 0.00 0.72 0.72 87 1012.8
20260506191003 52 84 2.6 3.5 0.00 0.72 0.72 87 1012.9
20260506190803 52 87 2.6 3.5 0.00 0.72 0.72 87 1012.7
20260506190603 52 87 2.6 3.5 0.00 0.72 0.72 87 1012.8
20260506190403 52 85 2.6 3.5 0.00 0.72 0.72 86 1012.6
20260506190003 52 80 2.6 3.5 0.00 0.72 0.72 87 1012.8
20260506185803 52 77 2.6 2.6 0.00 0.72 0.72 87 1012.8
20260506185617 52 78 2.6 3.5 0.00 0.72 0.72 87 1012.8
20260506185603 52 79 2.6 3.5 0.00 0.72 0.72 87 1012.8
20260506185203 52 78 2.6 4.3 0.00 0.72 0.72 87 1012.9
20260506185003 52 74 2.6 3.5 0.00 0.72 0.72 87 1012.8
20260506184803 52 73 2.6 4.3 0.00 0.72 0.72 86 1012.6
20260506184603 52 71 2.6 2.6 0.00 0.72 0.72 86 1012.7
20260506184403 53 73 2.6 3.5 0.00 0.72 0.72 86 1012.6
20260506184217 53 74 2.6 4.3 0.00 0.72 0.72 86 1012.5
20260506184203 53 75 2.6 4.3 0.00 0.72 0.72 87 1012.5
20260506183803 53 82 2.6 2.6 0.00 0.72 0.72 88 1012.5
20260506183403 53 85 2.6 3.5 0.00 0.72 0.72 88 1012.3
20260506183203 53 86 2.6 3.5 0.00 0.72 0.72 87 1012.2
20260506183003 53 86 2.6 4.3 0.00 0.72 0.72 87 1012.2
20260506182803 53 88 2.6 3.5 0.00 0.72 0.72 87 1012.3
20260506182603 53 85 2.6 2.6 0.00 0.72 0.72 87 1012.2
20260506182403 53 82 2.6 3.5 0.00 0.72 0.72 87 1012.2
20260506182203 53 83 2.6 2.6 0.00 0.72 0.72 86 1012.3
20260506182003 54 80 2.6 3.5 0.00 0.72 0.72 86 1012.2
20260506181803 54 83 2.6 2.6 0.00 0.72 0.72 87 1012.3
20260506181603 54 87 2.6 2.6 0.00 0.72 0.72 86 1012.3
20260506181403 54 92 2.6 5.2 0.00 0.72 0.72 85 1012.1
20260506181203 54 93 2.6 4.3 0.00 0.72 0.72 86 1012.0
20260506181003 54 96 2.6 3.5 0.00 0.72 0.72 86 1012.2
20260506180803 54 98 2.6 3.5 0.00 0.72 0.72 86 1012.1
20260506180603 54 98 2.6 3.5 0.00 0.72 0.72 86 1011.8
20260506180403 54 96 2.6 4.3 0.00 0.72 0.72 85 1011.9
20260506180203 54 95 2.6 4.3 0.00 0.72 0.72 86 1011.9
20260506180004 54 94 2.6 3.5 0.00 0.72 0.72 85 1011.9
20260506175803 54 93 2.6 2.6 0.00 0.72 0.72 85 1011.9
20260506175603 54 86 2.6 3.5 0.00 0.72 0.72 85 1011.8
20260506175403 54 86 2.6 3.5 0.00 0.72 0.72 85 1011.8
20260506175203 54 86 2.6 2.6 0.00 0.72 0.72 85 1011.8
20260506175016 54 82 2.6 3.5 0.00 0.72 0.72 85 1011.7
20260506175003 54 83 2.6 3.5 0.00 0.72 0.72 85 1011.7
20260506174603 54 87 2.6 5.2 0.00 0.72 0.72 84 1012.0
20260506174403 54 85 2.6 5.2 0.00 0.72 0.72 85 1012.0
20260506174203 55 83 2.6 3.5 0.00 0.72 0.72 86 1012.2
20260506174003 55 82 2.6 3.5 0.00 0.72 0.72 85 1011.8
20260506173803 55 80 2.6 2.6 0.00 0.72 0.72 86 1011.7
20260506173603 55 77 2.6 3.5 0.00 0.72 0.72 86 1011.9
20260506173404 55 78 2.6 3.5 0.00 0.72 0.72 85 1011.8
20260506173203 55 79 2.6 2.6 0.00 0.72 0.72 85 1011.9
20260506173003 55 79 2.6 3.5 0.00 0.72 0.72 86 1012.2
20260506172803 55 83 2.6 3.5 0.00 0.72 0.72 86 1011.8
20260506172603 55 84 2.6 3.5 0.00 0.72 0.72 85 1012.1
20260506172403 55 81 2.6 2.6 0.00 0.72 0.72 85 1012.2
20260506172203 55 79 2.6 3.5 0.00 0.72 0.72 85 1012.1
20260506172003 54 80 2.6 2.6 0.00 0.72 0.72 85 1012.0
20260506171803 55 76 2.6 3.5 0.00 0.72 0.72 85 1012.1
20260506171603 55 77 2.6 3.5 0.00 0.72 0.72 85 1011.9
20260506171403 55 81 2.6 3.5 0.00 0.72 0.72 85 1012.2
20260506171003 55 86 2.6 3.5 0.00 0.72 0.72 85 1011.8
20260506170803 55 87 2.6 3.5 0.00 0.72 0.72 85 1011.6
20260506170603 55 87 2.6 3.5 0.00 0.72 0.72 84 1011.7
20260506170203 55 81 2.6 3.5 0.00 0.72 0.72 84 1011.7
20260506170003 55 77 2.6 3.5 0.00 0.72 0.72 85 1011.6
20260506165817 55 75 2.6 3.5 0.00 0.72 0.72 84 1011.6
20260506165803 55 75 2.6 4.3 0.00 0.72 0.72 84 1011.6
20260506165403 55 76 2.6 2.6 0.00 0.72 0.72 85 1011.6
20260506165203 55 77 2.6 3.5 0.00 0.72 0.72 85 1011.8
20260506165003 55 81 2.6 4.3 0.00 0.72 0.72 85 1011.6
20260506164803 55 84 2.6 3.5 0.00 0.72 0.72 84 1011.5
20260506164603 55 84 2.6 4.3 0.00 0.72 0.72 85 1011.5
20260506164203 55 81 2.6 3.5 0.00 0.72 0.72 86 1011.3
20260506164003 55 82 2.6 3.5 0.00 0.72 0.72 85 1011.5
20260506163803 55 78 2.6 3.5 0.00 0.72 0.72 86 1011.7
20260506163603 55 76 2.6 4.3 0.00 0.72 0.72 85 1011.5
20260506163403 55 81 2.6 4.3 0.00 0.72 0.72 85 1011.8
20260506163203 55 82 2.6 4.3 0.00 0.72 0.72 86 1011.7
20260506163003 55 82 2.6 3.5 0.00 0.72 0.72 85 1011.6
20260506162817 56 90 2.6 3.5 0.00 0.72 0.72 85 1011.6
20260506162803 56 91 2.6 3.5 0.00 0.72 0.72 85 1011.6
20260506162618 56 95 2.6 5.2 0.00 0.72 0.72 85 1011.5
20260506162203 56 97 2.6 2.6 0.00 0.72 0.72 86 1011.6
20260506162003 56 95 2.6 4.3 0.00 0.72 0.72 85 1011.5
20260506161803 56 87 2.6 4.3 0.00 0.72 0.72 85 1011.6
20260506161603 56 81 2.6 2.6 0.00 0.72 0.72 85 1011.5
20260506161403 56 78 2.6 2.6 0.00 0.72 0.72 85 1011.5
20260506161203 55 77 2.6 2.6 0.00 0.72 0.72 85 1011.4
20260506161004 55 79 2.6 2.6 0.00 0.72 0.72 84 1011.5
20260506160803 56 74 2.6 3.5 0.00 0.72 0.72 84 1011.5
20260506160603 56 78 2.6 4.3 0.00 0.72 0.72 84 1011.6
20260506160403 56 76 2.6 3.5 0.00 0.72 0.72 84 1011.8
20260506160203 56 78 2.6 3.5 0.00 0.72 0.72 84 1011.6
20260506160003 56 80 2.6 5.2 0.00 0.72 0.72 83 1011.6
20260506155803 56 87 2.6 3.5 0.00 0.72 0.72 84 1011.5
20260506155618 56 86 2.6 3.5 0.00 0.72 0.72 84 1011.7
20260506155603 56 87 2.6 3.5 0.00 0.72 0.72 84 1011.7
20260506155216 56 87 2.6 3.5 0.00 0.72 0.72 83 1011.7
20260506155203 56 85 2.6 3.5 0.00 0.72 0.72 83 1011.7
20260506154817 56 83 2.6 2.6 0.00 0.72 0.72 83 1011.5
20260506154803 56 83 2.6 3.5 0.00 0.72 0.72 83 1011.5
20260506154403 56 81 2.6 2.6 0.00 0.72 0.72 85 1011.7
20260506154203 56 84 2.6 3.5 0.00 0.72 0.72 86 1011.7
20260506154017 56 83 2.6 3.5 0.00 0.72 0.72 85 1011.4
20260506154003 56 82 2.6 3.5 0.00 0.72 0.72 85 1011.4
20260506153603 56 76 2.6 2.6 0.00 0.72 0.72 86 1011.6
20260506153417 56 78 2.6 3.5 0.00 0.72 0.72 86 1011.6
20260506153403 56 77 2.6 3.5 0.00 0.72 0.72 86 1011.6